Location: Seattle
(47.6064°N, 122.3308°W)
Time: 00:13:03
(UTC-08:00)

Tiros 1 - Pass Details

Date: 02 December 2020
Orbit: 630 x 663 km, 48.4° (Epoch: 28 January)

Event Time Altitude Azimuth Distance (km) Brightness Sun altitude
Rises 14:52:33 0° 241° (WSW) 2,988 12.1 10.1°
Reaches altitude 10° 14:54:55 10° 238° (WSW) 2,078 11.6 9.9°
Maximum altitude 14:59:40 64° 158° (SSE) 734 7.8 9.3°
Drops below altitude 10° 15:04:25 10° 78° (ENE) 2,077 9.3 8.8°
Sets 15:06:46 0° 75° (ENE) 2,987 10.0 8.5°
